TimeCST,TemperatureF,Dew PointF,Humidity,Sea Level PressureIn,VisibilityMPH,Wind Direction,Wind SpeedMPH,Gust SpeedMPH,PrecipitationIn,Events,Conditions,WindDirDegrees,DateUTC
12:15 AM,30.2,21.2,69,30.36,10.0,SW,10.4,-,N/A,,Clear,220,2013-01-18 06:15:00
12:35 AM,28.4,19.4,69,30.36,10.0,SW,9.2,-,N/A,,Clear,230,2013-01-18 06:35:00
12:55 AM,28.4,19.4,69,30.35,10.0,SW,10.4,-,N/A,,Clear,220,2013-01-18 06:55:00
1:15 AM,30.2,21.2,69,30.35,10.0,SW,12.7,-,N/A,,Clear,220,2013-01-18 07:15:00
1:35 AM,30.2,21.2,69,30.34,10.0,SSW,13.8,-,N/A,,Clear,210,2013-01-18 07:35:00
1:55 AM,30.2,21.2,69,30.34,10.0,SSW,12.7,-,N/A,,Clear,210,2013-01-18 07:55:00
2:15 AM,30.2,21.2,69,30.33,10.0,SSW,12.7,-,N/A,,Clear,210,2013-01-18 08:15:00
2:35 AM,30.2,21.2,69,30.32,10.0,SSW,15.0,-,N/A,,Clear,200,2013-01-18 08:35:00
2:55 AM,33.8,24.8,70,30.32,10.0,SSW,15.0,-,N/A,,Clear,210,2013-01-18 08:55:00
3:15 AM,33.8,23.0,65,30.32,10.0,SSW,13.8,-,N/A,,Clear,210,2013-01-18 09:15:00
3:35 AM,33.8,21.2,60,30.31,10.0,SSW,12.7,-,N/A,,Clear,210,2013-01-18 09:35:00
3:55 AM,32.0,21.2,64,30.30,10.0,SW,13.8,-,N/A,,Clear,220,2013-01-18 09:55:00
4:15 AM,30.2,21.2,69,30.29,10.0,SSW,12.7,-,N/A,,Clear,210,2013-01-18 10:15:00
4:35 AM,30.2,21.2,69,30.28,10.0,SSW,12.7,-,N/A,,Clear,210,2013-01-18 10:35:00
4:55 AM,30.2,21.2,69,30.27,10.0,SSW,12.7,-,N/A,,Clear,200,2013-01-18 10:55:00
5:15 AM,30.2,21.2,69,30.26,10.0,SSW,13.8,-,N/A,,Clear,200,2013-01-18 11:15:00
5:35 AM,30.2,21.2,69,30.25,10.0,SSW,13.8,-,N/A,,Clear,200,2013-01-18 11:35:00
5:55 AM,30.2,21.2,69,30.25,10.0,SSW,13.8,-,N/A,,Clear,200,2013-01-18 11:55:00
6:15 AM,30.2,21.2,69,30.24,10.0,South,12.7,-,N/A,,Clear,190,2013-01-18 12:15:00
6:35 AM,30.2,21.2,69,30.23,10.0,SSW,12.7,-,N/A,,Clear,200,2013-01-18 12:35:00
6:55 AM,30.2,21.2,69,30.23,10.0,South,13.8,-,N/A,,Clear,190,2013-01-18 12:55:00
7:15 AM,30.2,21.2,69,30.23,10.0,South,12.7,-,N/A,,Clear,190,2013-01-18 13:15:00
7:35 AM,28.4,21.2,74,30.23,10.0,South,11.5,-,N/A,,Clear,190,2013-01-18 13:35:00
7:55 AM,28.4,19.4,69,30.23,10.0,SSW,11.5,-,N/A,,Clear,200,2013-01-18 13:55:00
8:15 AM,28.4,19.4,69,30.23,10.0,SSW,10.4,-,N/A,,Clear,200,2013-01-18 14:15:00
8:35 AM,30.2,21.2,69,30.22,10.0,SSW,12.7,-,N/A,,Clear,200,2013-01-18 14:35:00
8:55 AM,33.8,24.8,70,30.22,10.0,SSW,13.8,-,N/A,,Clear,200,2013-01-18 14:55:00
9:15 AM,35.6,24.8,65,30.22,10.0,SSW,12.7,-,N/A,,Clear,210,2013-01-18 15:15:00
9:35 AM,37.4,26.6,65,30.23,10.0,SW,17.3,-,N/A,,Clear,220,2013-01-18 15:35:00
9:55 AM,41.0,28.4,61,30.24,10.0,SW,18.4,24.2,N/A,,Clear,220,2013-01-18 15:55:00
10:15 AM,44.6,30.2,57,30.23,10.0,SW,19.6,26.5,N/A,,Clear,220,2013-01-18 16:15:00
10:35 AM,46.4,30.2,53,30.24,10.0,SW,20.7,28.8,N/A,,Clear,230,2013-01-18 16:35:00
10:55 AM,46.4,30.2,53,30.24,10.0,SW,26.5,31.1,N/A,,Clear,230,2013-01-18 16:55:00
11:15 AM,48.2,30.2,50,30.23,10.0,SW,24.2,29.9,N/A,,Clear,230,2013-01-18 17:15:00
11:35 AM,51.8,30.2,44,30.21,10.0,SW,23.0,31.1,N/A,,Clear,220,2013-01-18 17:35:00
4:35 PM,60.8,26.6,27,30.08,10.0,SW,13.8,-,N/A,,Clear,220,2013-01-18 22:35:00
4:55 PM,59.0,24.8,27,30.08,10.0,SW,10.4,-,N/A,,Clear,230,2013-01-18 22:55:00
5:15 PM,57.2,24.8,29,30.09,10.0,WSW,8.1,-,N/A,,Clear,240,2013-01-18 23:15:00
5:35 PM,53.6,24.8,33,30.08,10.0,SW,9.2,-,N/A,,Clear,230,2013-01-18 23:35:00
5:55 PM,48.2,23.0,37,30.08,10.0,SW,8.1,-,N/A,,Clear,230,2013-01-18 23:55:00
6:15 PM,44.6,21.2,39,30.08,10.0,SSW,5.8,-,N/A,,Clear,210,2013-01-19 00:15:00
6:35 PM,39.2,19.4,45,30.08,10.0,SSW,5.8,-,N/A,,Clear,200,2013-01-19 00:35:00
6:55 PM,39.2,19.4,45,30.08,10.0,SW,9.2,-,N/A,,Clear,220,2013-01-19 00:55:00
7:15 PM,39.2,21.2,49,30.08,10.0,SSW,10.4,-,N/A,,Clear,210,2013-01-19 01:15:00
7:35 PM,35.6,19.4,52,30.08,10.0,SSW,12.7,-,N/A,,Clear,210,2013-01-19 01:35:00
7:55 PM,37.4,21.2,52,30.08,10.0,SSW,10.4,-,N/A,,Clear,210,2013-01-19 01:55:00
8:15 PM,37.4,19.4,48,30.09,10.0,SW,4.6,-,N/A,,Clear,220,2013-01-19 02:15:00
8:35 PM,37.4,21.2,52,30.09,10.0,SW,9.2,-,N/A,,Clear,220,2013-01-19 02:35:00
8:55 PM,33.8,19.4,56,30.09,10.0,SW,10.4,-,N/A,,Clear,220,2013-01-19 02:55:00
9:35 PM,32.0,17.6,55,30.08,10.0,SSW,8.1,-,N/A,,Clear,210,2013-01-19 03:35:00
9:55 PM,33.8,19.4,56,30.08,10.0,SW,10.4,-,N/A,,Clear,220,2013-01-19 03:55:00
10:15 PM,33.8,21.2,60,30.08,10.0,SW,9.2,-,N/A,,Clear,230,2013-01-19 04:15:00
10:35 PM,33.8,21.2,60,30.08,10.0,SW,8.1,-,N/A,,Clear,220,2013-01-19 04:35:00
10:55 PM,30.2,19.4,64,30.07,10.0,SSW,10.4,-,N/A,,Clear,210,2013-01-19 04:55:00
11:15 PM,33.8,23.0,65,30.06,10.0,SSW,11.5,-,N/A,,Clear,210,2013-01-19 05:15:00
11:35 PM,33.8,21.2,60,30.06,10.0,SSW,10.4,-,N/A,,Clear,210,2013-01-19 05:35:00
11:55 PM,33.8,21.2,60,30.05,10.0,SW,12.7,-,N/A,,Clear,230,2013-01-19 05:55:00